Year,Month,Day,Hour,Minute,Value (Times are PST for temperature in C)
2012,03,25,00,00,2.40
2012,03,25,00,01,2.40
2012,03,25,00,02,2.40
2012,03,25,00,03,2.40
2012,03,25,00,04,2.40
2012,03,25,00,05,2.40
2012,03,25,00,06,2.30
2012,03,25,00,07,2.30
2012,03,25,00,08,2.30
2012,03,25,00,09,2.30
2012,03,25,00,10,2.30
2012,03,25,00,11,2.30
2012,03,25,00,12,2.30
2012,03,25,00,13,2.30
2012,03,25,00,14,2.30
2012,03,25,00,15,2.30
2012,03,25,00,16,2.30
2012,03,25,00,17,2.30
2012,03,25,00,18,2.30
2012,03,25,00,19,2.30
2012,03,25,00,20,2.30
2012,03,25,00,21,2.30
2012,03,25,00,22,2.20
2012,03,25,00,23,2.20
2012,03,25,00,24,2.20
2012,03,25,00,25,2.20
2012,03,25,00,26,2.20
2012,03,25,00,27,2.20
2012,03,25,00,28,2.20
2012,03,25,00,29,2.20
2012,03,25,00,30,2.10
2012,03,25,00,31,2.10
2012,03,25,00,32,2.10
2012,03,25,00,33,2.10
2012,03,25,00,34,2.10
2012,03,25,00,35,2.10
2012,03,25,00,36,2.10
2012,03,25,00,37,2.00
2012,03,25,00,38,2.00
2012,03,25,00,39,2.00
2012,03,25,00,40,1.90
2012,03,25,00,41,1.90
2012,03,25,00,42,1.90
2012,03,25,00,43,1.90
2012,03,25,00,44,1.90
2012,03,25,00,45,1.90
2012,03,25,00,46,1.90
2012,03,25,00,47,1.80
2012,03,25,00,48,1.80
2012,03,25,00,49,1.80
2012,03,25,00,50,1.80
2012,03,25,00,51,1.80
2012,03,25,00,52,1.80
2012,03,25,00,53,1.80
2012,03,25,00,54,1.70
2012,03,25,00,55,1.70
2012,03,25,00,56,1.70
2012,03,25,00,57,1.70
2012,03,25,00,58,1.70
2012,03,25,00,59,1.70
2012,03,25,01,00,1.60
2012,03,25,01,01,1.60
2012,03,25,01,02,1.60
2012,03,25,01,03,1.60
2012,03,25,01,04,1.50
2012,03,25,01,05,1.50
2012,03,25,01,06,1.50
2012,03,25,01,07,1.40
2012,03,25,01,08,1.40
2012,03,25,01,09,1.40
2012,03,25,01,10,1.40
2012,03,25,01,11,1.40
2012,03,25,01,12,1.30
2012,03,25,01,13,1.30
2012,03,25,01,14,1.30
2012,03,25,01,15,1.30
2012,03,25,01,16,1.30
2012,03,25,01,17,1.30
2012,03,25,01,18,1.30
2012,03,25,01,19,1.30
2012,03,25,01,20,1.30
2012,03,25,01,21,1.30
2012,03,25,01,22,1.30
2012,03,25,01,23,1.30
2012,03,25,01,24,1.30
2012,03,25,01,25,1.30
2012,03,25,01,26,1.30
2012,03,25,01,27,1.30
2012,03,25,01,28,1.30
2012,03,25,01,29,1.30
2012,03,25,01,30,1.30
2012,03,25,01,31,1.30
2012,03,25,01,32,1.30
2012,03,25,01,33,1.20
2012,03,25,01,34,1.20
2012,03,25,01,35,1.20
2012,03,25,01,36,1.20
2012,03,25,01,37,1.20
2012,03,25,01,38,1.20
2012,03,25,01,39,1.10
2012,03,25,01,40,1.10
2012,03,25,01,41,1.10
2012,03,25,01,42,1.10
2012,03,25,01,43,1.10
2012,03,25,01,44,1.00
2012,03,25,01,45,1.00
2012,03,25,01,46,1.00
2012,03,25,01,47,1.00
2012,03,25,01,48,1.00
2012,03,25,01,49,0.90
2012,03,25,01,50,0.90
2012,03,25,01,51,0.90
2012,03,25,01,52,0.90
2012,03,25,01,53,0.90
2012,03,25,01,54,0.80
2012,03,25,01,55,0.80
2012,03,25,01,56,0.80
2012,03,25,01,57,0.80
2012,03,25,01,58,0.80
2012,03,25,01,59,0.80
2012,03,25,02,00,0.80
2012,03,25,02,01,0.80
2012,03,25,02,02,0.70
2012,03,25,02,03,0.70
2012,03,25,02,04,0.70
2012,03,25,02,05,0.70
2012,03,25,02,06,0.70
2012,03,25,02,07,0.60
2012,03,25,02,08,0.60
2012,03,25,02,09,0.60
2012,03,25,02,10,0.60
2012,03,25,02,11,0.60
2012,03,25,02,12,0.60
2012,03,25,02,13,0.60
2012,03,25,02,14,0.60
2012,03,25,02,15,0.60
2012,03,25,02,16,0.60
2012,03,25,02,17,0.60
2012,03,25,02,18,0.60
2012,03,25,02,19,0.60
2012,03,25,02,20,0.60
2012,03,25,02,21,0.60
2012,03,25,02,22,0.60
2012,03,25,02,23,0.60
2012,03,25,02,24,0.60
2012,03,25,02,25,0.60
2012,03,25,02,26,0.60
2012,03,25,02,27,0.60
2012,03,25,02,28,0.60
2012,03,25,02,29,0.60
2012,03,25,02,30,0.60
2012,03,25,02,31,0.60
2012,03,25,02,32,0.60
2012,03,25,02,33,0.60
2012,03,25,02,34,0.60
2012,03,25,02,35,0.60
2012,03,25,02,36,0.60
2012,03,25,02,37,0.60
2012,03,25,02,38,0.60
2012,03,25,02,39,0.60
2012,03,25,02,40,0.50
2012,03,25,02,41,0.50
2012,03,25,02,42,0.50
2012,03,25,02,43,0.50
2012,03,25,02,44,0.50
2012,03,25,02,45,0.40
2012,03,25,02,46,0.40
2012,03,25,02,47,0.40
2012,03,25,02,48,0.40
2012,03,25,02,49,0.40
2012,03,25,02,50,0.40
2012,03,25,02,51,0.30
2012,03,25,02,52,0.30
2012,03,25,02,53,0.30
2012,03,25,02,54,0.30
2012,03,25,02,55,0.30
2012,03,25,02,56,0.30
2012,03,25,02,57,0.30
2012,03,25,02,58,0.30
2012,03,25,02,59,0.30
2012,03,25,03,00,0.30
2012,03,25,03,01,0.30
2012,03,25,03,02,0.30
2012,03,25,03,03,0.30
2012,03,25,03,06,0.30
2012,03,25,03,07,0.30
2012,03,25,03,08,0.30
2012,03,25,03,09,0.30
2012,03,25,03,10,0.30
2012,03,25,03,11,0.20
2012,03,25,03,12,0.20
2012,03,25,03,13,0.20
2012,03,25,03,14,0.20
2012,03,25,03,15,0.20
2012,03,25,03,16,0.20
2012,03,25,03,17,0.20
2012,03,25,03,18,0.20
2012,03,25,03,19,0.20
2012,03,25,03,20,0.10
2012,03,25,03,21,0.10
2012,03,25,03,22,0.10
2012,03,25,03,23,0.10
2012,03,25,03,24,0.10
2012,03,25,03,25,0.10
2012,03,25,03,26,0.10
2012,03,25,03,27,0.10
2012,03,25,03,28,0.10
2012,03,25,03,29,0.10
2012,03,25,03,30,0.10
2012,03,25,03,31,0.00
2012,03,25,03,32,0.10
2012,03,25,03,33,0.00
2012,03,25,03,34,0.10
2012,03,25,03,35,0.10
2012,03,25,03,36,0.10
2012,03,25,03,37,0.10
2012,03,25,03,38,0.10
2012,03,25,03,39,0.10
2012,03,25,03,40,0.10
2012,03,25,03,41,0.10
2012,03,25,03,42,0.10
2012,03,25,03,43,0.10
2012,03,25,03,44,0.10
2012,03,25,03,45,0.10
2012,03,25,03,46,0.10
2012,03,25,03,47,0.10
2012,03,25,03,48,0.10
2012,03,25,03,49,0.10
2012,03,25,03,50,0.10
2012,03,25,03,51,0.10
2012,03,25,03,52,0.10
2012,03,25,03,53,0.10
2012,03,25,03,54,0.20
2012,03,25,03,55,0.20
2012,03,25,03,56,0.20
2012,03,25,03,57,0.20
2012,03,25,03,58,0.20
2012,03,25,03,59,0.20
2012,03,25,04,00,0.20
2012,03,25,04,01,0.20
2012,03,25,04,02,0.20
2012,03,25,04,03,0.20
2012,03,25,04,04,0.20
2012,03,25,04,05,0.20
2012,03,25,04,06,0.20
2012,03,25,04,07,0.20
2012,03,25,04,08,0.20
2012,03,25,04,09,0.20
2012,03,25,04,10,0.20
2012,03,25,04,11,0.20
2012,03,25,04,12,0.20
2012,03,25,04,13,0.20
2012,03,25,04,14,0.20
2012,03,25,04,15,0.20
2012,03,25,04,16,0.20
2012,03,25,04,17,0.20
2012,03,25,04,18,0.20
2012,03,25,04,19,0.20
2012,03,25,04,20,0.20
2012,03,25,04,21,0.20
2012,03,25,04,22,0.20
2012,03,25,04,23,0.20
2012,03,25,04,24,0.20
2012,03,25,04,25,0.20
2012,03,25,04,26,0.20
2012,03,25,04,27,0.20
2012,03,25,04,28,0.20
2012,03,25,04,29,0.20
2012,03,25,04,30,0.20
2012,03,25,04,31,0.20
2012,03,25,04,32,0.20
2012,03,25,04,33,0.20
2012,03,25,04,34,0.20
2012,03,25,04,35,0.20
2012,03,25,04,36,0.20
2012,03,25,04,37,0.20
2012,03,25,04,38,0.20
2012,03,25,04,39,0.20
2012,03,25,04,40,0.20
2012,03,25,04,41,0.20
2012,03,25,04,42,0.20
2012,03,25,04,43,0.20
2012,03,25,04,44,0.20
2012,03,25,04,45,0.20
2012,03,25,04,46,0.20
2012,03,25,04,47,0.20
2012,03,25,04,48,0.20
2012,03,25,04,49,0.20
2012,03,25,04,50,0.20
2012,03,25,04,51,0.30
2012,03,25,04,52,0.30
2012,03,25,04,53,0.30
2012,03,25,04,54,0.30
2012,03,25,04,55,0.30
2012,03,25,04,56,0.30
2012,03,25,04,57,0.30
2012,03,25,04,58,0.30
2012,03,25,04,59,0.30
2012,03,25,05,00,0.30
2012,03,25,05,01,0.30
2012,03,25,05,02,0.30
2012,03,25,05,03,0.30
2012,03,25,05,04,0.30
2012,03,25,05,05,0.30
2012,03,25,05,06,0.30
2012,03,25,05,07,0.30
2012,03,25,05,08,0.30
2012,03,25,05,09,0.30
2012,03,25,05,10,0.30
2012,03,25,05,11,0.30
2012,03,25,05,12,0.30
2012,03,25,05,13,0.30
2012,03,25,05,14,0.30
2012,03,25,05,15,0.30
2012,03,25,05,16,0.30
2012,03,25,05,17,0.30
2012,03,25,05,18,0.30
2012,03,25,05,19,0.30
2012,03,25,05,20,0.30
2012,03,25,05,21,0.30
2012,03,25,05,22,0.30
2012,03,25,05,23,0.30
2012,03,25,05,24,0.30
2012,03,25,05,25,0.40
2012,03,25,05,26,0.40
2012,03,25,05,27,0.40
2012,03,25,05,28,0.40
2012,03,25,05,29,0.40
2012,03,25,05,30,0.40
2012,03,25,05,31,0.50
2012,03,25,05,32,0.50
2012,03,25,05,33,0.50
2012,03,25,05,34,0.50
2012,03,25,05,35,0.60
2012,03,25,05,36,0.60
2012,03,25,05,37,0.60
2012,03,25,05,38,0.60
2012,03,25,05,39,0.60
2012,03,25,05,40,0.60
2012,03,25,05,41,0.70
2012,03,25,05,42,0.70
2012,03,25,05,43,0.70
2012,03,25,05,44,0.70
2012,03,25,05,45,0.70
2012,03,25,05,46,0.70
2012,03,25,05,47,0.70
2012,03,25,05,48,0.70
2012,03,25,05,49,0.70
2012,03,25,05,50,0.70
2012,03,25,05,51,0.70
2012,03,25,05,52,0.70
2012,03,25,05,53,0.70
2012,03,25,05,54,0.70
2012,03,25,05,55,0.70
2012,03,25,05,56,0.70
2012,03,25,05,57,0.70
2012,03,25,05,58,0.70
2012,03,25,05,59,0.70
2012,03,25,06,00,0.70
2012,03,25,06,01,0.70
2012,03,25,06,02,0.70
2012,03,25,06,03,0.70
2012,03,25,06,04,0.80
2012,03,25,06,05,0.80
2012,03,25,06,06,0.80
2012,03,25,06,07,0.80
2012,03,25,06,08,0.80
2012,03,25,06,09,0.80
2012,03,25,06,10,0.80
2012,03,25,06,11,0.80
2012,03,25,06,12,0.90
2012,03,25,06,13,0.90
2012,03,25,06,14,0.90
2012,03,25,06,15,0.90
2012,03,25,06,16,0.90
2012,03,25,06,17,0.90
2012,03,25,06,18,0.90
2012,03,25,06,19,0.90
2012,03,25,06,20,0.90
2012,03,25,06,21,0.90
2012,03,25,06,22,1.00
2012,03,25,06,23,1.00
2012,03,25,06,24,1.00
2012,03,25,06,25,1.00
2012,03,25,06,26,1.00
2012,03,25,06,27,1.00
2012,03,25,06,28,0.90
2012,03,25,06,29,0.90
2012,03,25,06,30,0.90
2012,03,25,06,31,0.90
2012,03,25,06,32,0.90
2012,03,25,06,33,0.90
2012,03,25,06,34,0.90
2012,03,25,06,35,0.80
2012,03,25,06,36,0.80
2012,03,25,06,37,0.80
2012,03,25,06,38,0.80
2012,03,25,06,39,0.80
2012,03,25,06,40,0.80
2012,03,25,06,41,0.80
2012,03,25,06,42,0.70
2012,03,25,06,43,0.70
2012,03,25,06,44,0.70
2012,03,25,06,45,0.70
2012,03,25,06,46,0.70
2012,03,25,06,47,0.70
2012,03,25,06,48,0.60
2012,03,25,06,49,0.60
2012,03,25,06,50,0.60
2012,03,25,06,51,0.60
2012,03,25,06,52,0.60
2012,03,25,06,53,0.60
2012,03,25,06,54,0.60
2012,03,25,06,55,0.60
2012,03,25,06,56,0.60
2012,03,25,06,57,0.60
2012,03,25,06,58,0.60
2012,03,25,06,59,0.50
2012,03,25,07,00,0.50
2012,03,25,07,01,0.50
2012,03,25,07,02,0.50
2012,03,25,07,03,0.50
2012,03,25,07,04,0.50
2012,03,25,07,05,0.50
2012,03,25,07,06,0.50
2012,03,25,07,07,0.50
2012,03,25,07,08,0.50
2012,03,25,07,09,0.40
2012,03,25,07,10,0.40
2012,03,25,07,11,0.40
2012,03,25,07,12,0.40
2012,03,25,07,13,0.40
2012,03,25,07,14,0.40
2012,03,25,07,15,0.40
2012,03,25,07,16,0.30
2012,03,25,07,17,0.30
2012,03,25,07,18,0.30
2012,03,25,07,19,0.30
2012,03,25,07,20,0.30
2012,03,25,07,21,0.30
2012,03,25,07,22,0.30
2012,03,25,07,23,0.20
2012,03,25,07,24,0.20
2012,03,25,07,25,0.20
2012,03,25,07,26,0.20
2012,03,25,07,27,0.20
2012,03,25,07,28,0.20
2012,03,25,07,29,0.20
2012,03,25,07,30,0.20
2012,03,25,07,31,0.30
2012,03,25,07,32,0.30
2012,03,25,07,33,0.30
2012,03,25,07,34,0.30
2012,03,25,07,35,0.30
2012,03,25,07,36,0.30
2012,03,25,07,37,0.30
2012,03,25,07,38,0.30
2012,03,25,07,39,0.30
2012,03,25,07,40,0.30
2012,03,25,07,41,0.30
2012,03,25,07,42,0.30
2012,03,25,07,43,0.30
2012,03,25,07,44,0.30
2012,03,25,07,45,0.30
2012,03,25,07,46,0.30
2012,03,25,07,47,0.30
2012,03,25,07,48,0.30
2012,03,25,07,49,0.30
2012,03,25,07,50,0.30
2012,03,25,07,51,0.30
2012,03,25,07,52,0.30
2012,03,25,07,53,0.30
2012,03,25,07,54,0.30
2012,03,25,07,55,0.30
2012,03,25,07,56,0.30
2012,03,25,07,57,0.30
2012,03,25,07,58,0.30
2012,03,25,07,59,0.30
2012,03,25,08,00,0.30
2012,03,25,08,01,0.20
2012,03,25,08,02,0.20
2012,03,25,08,03,0.20
2012,03,25,08,04,0.20
2012,03,25,08,05,0.20
2012,03,25,08,06,0.20
2012,03,25,08,07,0.20
2012,03,25,08,08,0.20
2012,03,25,08,09,0.20
2012,03,25,08,10,0.20
2012,03,25,08,11,0.20
2012,03,25,08,12,0.20
2012,03,25,08,13,0.30
2012,03,25,08,14,0.30
2012,03,25,08,15,0.30
2012,03,25,08,16,0.30
2012,03,25,08,17,0.30
2012,03,25,08,18,0.30
2012,03,25,08,19,0.30
2012,03,25,08,20,0.30
2012,03,25,08,21,0.30
2012,03,25,08,22,0.30
2012,03,25,08,23,0.30
2012,03,25,08,24,0.40
2012,03,25,08,25,0.40
2012,03,25,08,26,0.40
2012,03,25,08,27,0.40
2012,03,25,08,28,0.50
2012,03,25,08,29,0.50
2012,03,25,08,30,0.50
2012,03,25,08,31,0.60
2012,03,25,08,32,0.60
2012,03,25,08,33,0.60
2012,03,25,08,34,0.70
2012,03,25,08,35,0.70
2012,03,25,08,36,0.80
2012,03,25,08,37,0.80
2012,03,25,08,38,0.80
2012,03,25,08,39,0.80
2012,03,25,08,40,0.90
2012,03,25,08,41,0.90
2012,03,25,08,42,0.90
2012,03,25,08,43,1.00
2012,03,25,08,44,1.00
2012,03,25,08,45,1.00
2012,03,25,08,46,1.10
2012,03,25,08,47,1.10
2012,03,25,08,48,1.20
2012,03,25,08,49,1.20
2012,03,25,08,50,1.30
2012,03,25,08,51,1.30
2012,03,25,08,52,1.30
2012,03,25,08,53,1.30
2012,03,25,08,54,1.30
2012,03,25,08,55,1.30
2012,03,25,08,56,1.40
2012,03,25,08,57,1.50
2012,03,25,08,58,1.60
2012,03,25,08,59,1.60
2012,03,25,09,00,1.70
2012,03,25,09,01,1.80
2012,03,25,09,02,1.80
2012,03,25,09,03,1.90
2012,03,25,09,04,2.00
2012,03,25,09,05,2.00
2012,03,25,09,06,2.10
2012,03,25,09,07,2.20
2012,03,25,09,08,2.20
2012,03,25,09,09,2.30
2012,03,25,09,10,2.30
2012,03,25,09,11,2.30
2012,03,25,09,12,2.40
2012,03,25,09,13,2.50
2012,03,25,09,14,2.50
2012,03,25,09,15,2.60
2012,03,25,09,16,2.60
2012,03,25,09,17,2.70
2012,03,25,09,18,2.80
2012,03,25,09,19,2.80
2012,03,25,09,20,2.90
2012,03,25,09,21,3.00
2012,03,25,09,22,3.10
2012,03,25,09,23,3.20
2012,03,25,09,24,3.20
2012,03,25,09,25,3.30
2012,03,25,09,26,3.40
2012,03,25,09,27,3.40
2012,03,25,09,28,3.50
2012,03,25,09,29,3.50
2012,03,25,09,30,3.60
2012,03,25,09,31,3.70
2012,03,25,09,32,3.70
2012,03,25,09,33,3.80
2012,03,25,09,34,3.90
2012,03,25,09,35,3.90
2012,03,25,09,36,4.00
2012,03,25,09,37,4.10
2012,03,25,09,38,4.20
2012,03,25,09,39,4.20
2012,03,25,09,40,4.30
2012,03,25,09,41,4.30
2012,03,25,09,42,4.40
2012,03,25,09,43,4.40
2012,03,25,09,44,4.50
2012,03,25,09,45,4.60
2012,03,25,09,46,4.60
2012,03,25,09,47,4.70
2012,03,25,09,48,4.70
2012,03,25,09,49,4.80
2012,03,25,09,50,4.80
2012,03,25,09,51,4.80
2012,03,25,09,52,4.90
2012,03,25,09,53,4.90
2012,03,25,09,54,5.00
2012,03,25,09,55,5.10
2012,03,25,09,56,5.10
2012,03,25,09,57,5.20
2012,03,25,09,58,5.30
2012,03,25,09,59,5.40
2012,03,25,10,00,5.50
2012,03,25,10,01,5.50
2012,03,25,10,02,5.70
2012,03,25,10,03,5.70
2012,03,25,10,04,5.80
2012,03,25,10,05,6.00
2012,03,25,10,06,6.10
2012,03,25,10,07,6.20
2012,03,25,10,08,6.20
2012,03,25,10,09,6.30
2012,03,25,10,10,6.50
2012,03,25,10,11,6.60
2012,03,25,10,12,6.80
2012,03,25,10,13,6.80
2012,03,25,10,14,7.00
2012,03,25,10,15,7.00
2012,03,25,10,16,7.20
2012,03,25,10,17,7.20
2012,03,25,10,18,7.30
2012,03,25,10,19,7.40
2012,03,25,10,20,7.50
2012,03,25,10,21,7.50
2012,03,25,10,22,7.60
2012,03,25,10,23,7.70
2012,03,25,10,24,7.80
2012,03,25,10,25,7.90
2012,03,25,10,26,8.00
2012,03,25,10,27,8.10
2012,03,25,10,28,8.20
2012,03,25,10,29,8.30
2012,03,25,10,30,8.40
2012,03,25,10,31,8.60
2012,03,25,10,32,8.70
2012,03,25,10,33,8.80
2012,03,25,10,34,8.80
2012,03,25,10,35,8.90
2012,03,25,10,36,9.00
2012,03,25,10,37,9.10
2012,03,25,10,38,9.20
2012,03,25,10,39,9.30
2012,03,25,10,40,9.30
2012,03,25,10,41,9.40
2012,03,25,10,42,9.50
2012,03,25,10,43,9.50
2012,03,25,10,44,9.60
2012,03,25,10,45,9.60
2012,03,25,10,46,9.70
2012,03,25,10,47,9.70
2012,03,25,10,48,9.70
2012,03,25,10,49,9.80
2012,03,25,10,50,9.80
2012,03,25,10,51,9.80
2012,03,25,10,52,9.80
2012,03,25,10,53,9.80
2012,03,25,10,54,9.90
2012,03,25,10,55,9.90
2012,03,25,10,56,10.00
2012,03,25,10,57,10.00
2012,03,25,10,58,10.10
2012,03,25,10,59,10.20
2012,03,25,11,00,10.20
2012,03,25,11,01,10.20
2012,03,25,11,02,10.30
2012,03,25,11,03,10.30
2012,03,25,11,04,10.30
2012,03,25,11,05,10.30
2012,03,25,11,06,10.30
2012,03,25,11,07,10.30
2012,03,25,11,08,10.30
2012,03,25,11,09,10.30
2012,03,25,11,10,10.20
2012,03,25,11,11,10.30
2012,03,25,11,12,10.30
2012,03,25,11,13,10.30
2012,03,25,11,14,10.30
2012,03,25,11,15,10.30
2012,03,25,11,16,10.30
2012,03,25,11,17,10.30
2012,03,25,11,18,10.40
2012,03,25,11,19,10.40
2012,03,25,11,20,10.40
2012,03,25,11,21,10.40
2012,03,25,11,22,10.40
2012,03,25,11,23,10.40
2012,03,25,11,24,10.40
2012,03,25,11,25,10.40
2012,03,25,11,26,10.40
2012,03,25,11,27,10.50
2012,03,25,11,28,10.50
2012,03,25,11,29,10.50
2012,03,25,11,30,10.50
2012,03,25,11,31,10.50
2012,03,25,11,32,10.50
2012,03,25,11,33,10.50
2012,03,25,11,34,10.50
2012,03,25,11,35,10.50
2012,03,25,11,36,10.50
2012,03,25,11,37,10.50
2012,03,25,11,38,10.50
2012,03,25,11,39,10.50
2012,03,25,11,40,10.60
2012,03,25,11,41,10.60
2012,03,25,11,42,10.60
2012,03,25,11,43,10.70
2012,03,25,11,44,10.70
2012,03,25,11,45,10.70
2012,03,25,11,46,10.70
2012,03,25,11,47,10.70
2012,03,25,11,48,10.80
2012,03,25,11,49,10.80
2012,03,25,11,50,10.90
2012,03,25,11,51,10.90
2012,03,25,11,52,11.00
2012,03,25,11,53,11.10
2012,03,25,11,54,11.10
2012,03,25,11,55,11.20
2012,03,25,11,56,11.20
2012,03,25,11,57,11.20
2012,03,25,11,58,11.20
2012,03,25,11,59,11.30
2012,03,25,12,00,11.30
2012,03,25,12,01,11.30
2012,03,25,12,02,11.30
2012,03,25,12,03,11.30
2012,03,25,12,04,11.30
2012,03,25,12,05,11.30
2012,03,25,12,06,11.30
2012,03,25,12,07,11.20
2012,03,25,12,08,11.30
2012,03,25,12,09,11.30
2012,03,25,12,10,11.30
2012,03,25,12,11,11.40
2012,03,25,12,12,11.40
2012,03,25,12,13,11.40
2012,03,25,12,14,11.40
2012,03,25,12,15,11.50
2012,03,25,12,16,11.50
2012,03,25,12,17,11.50
2012,03,25,12,18,11.60
2012,03,25,12,19,11.60
2012,03,25,12,20,11.60
2012,03,25,12,21,11.70
2012,03,25,12,22,11.70
2012,03,25,12,23,11.70
2012,03,25,12,24,11.70
2012,03,25,12,25,11.70
2012,03,25,12,26,11.70
2012,03,25,12,27,11.80
2012,03,25,12,28,11.80
2012,03,25,12,29,11.80
2012,03,25,12,30,11.90
2012,03,25,12,31,11.90
2012,03,25,12,32,11.90
2012,03,25,12,33,11.90
2012,03,25,12,34,11.90
2012,03,25,12,35,11.90
2012,03,25,12,36,11.90
2012,03,25,12,37,11.90
2012,03,25,12,38,11.90
2012,03,25,12,39,12.00
2012,03,25,12,40,12.00
2012,03,25,12,41,12.10
2012,03,25,12,42,12.20
2012,03,25,12,43,12.20
2012,03,25,12,44,12.20
2012,03,25,12,45,12.20
2012,03,25,12,46,12.20
2012,03,25,12,47,12.20
2012,03,25,12,48,12.20
2012,03,25,12,49,12.20
2012,03,25,12,50,12.20
2012,03,25,12,51,12.20
2012,03,25,12,52,12.20
2012,03,25,12,53,12.20
2012,03,25,12,54,12.30
2012,03,25,12,55,12.30
2012,03,25,12,56,12.30
2012,03,25,12,57,12.30
2012,03,25,12,58,12.30
2012,03,25,12,59,12.30
2012,03,25,13,00,12.30
2012,03,25,13,01,12.30
2012,03,25,13,02,12.40
2012,03,25,13,03,12.40
2012,03,25,13,04,12.40
2012,03,25,13,05,12.40
2012,03,25,13,06,12.40
2012,03,25,13,07,12.40
2012,03,25,13,08,12.40
2012,03,25,13,09,12.50
2012,03,25,13,10,12.50
2012,03,25,13,11,12.60
2012,03,25,13,12,12.60
2012,03,25,13,13,12.70
2012,03,25,13,14,12.70
2012,03,25,13,15,12.80
2012,03,25,13,16,12.80
2012,03,25,13,17,12.90
2012,03,25,13,18,13.00
2012,03,25,13,19,13.00
2012,03,25,13,20,13.10
2012,03,25,13,21,13.10
2012,03,25,13,22,13.10
2012,03,25,13,23,13.10
2012,03,25,13,24,13.10
2012,03,25,13,25,13.10
2012,03,25,13,26,13.10
2012,03,25,13,27,13.20
2012,03,25,13,28,13.20
2012,03,25,13,29,13.30
2012,03,25,13,30,13.30
2012,03,25,13,31,13.30
2012,03,25,13,32,13.30
2012,03,25,13,33,13.30
2012,03,25,13,34,13.30
2012,03,25,13,35,13.30
2012,03,25,13,36,13.30
2012,03,25,13,37,13.40
2012,03,25,13,38,13.40
2012,03,25,13,39,13.50
2012,03,25,13,40,13.60
2012,03,25,13,41,13.60
2012,03,25,13,42,13.60
2012,03,25,13,43,13.70
2012,03,25,13,44,13.70
2012,03,25,13,45,13.70
2012,03,25,13,46,13.60
2012,03,25,13,47,13.60
2012,03,25,13,48,13.60
2012,03,25,13,49,13.60
2012,03,25,13,50,13.60
2012,03,25,13,51,13.60
2012,03,25,13,52,13.60
2012,03,25,13,53,13.70
2012,03,25,13,54,13.70
2012,03,25,13,55,13.80
2012,03,25,13,56,13.80
2012,03,25,13,57,13.80
2012,03,25,13,58,13.90
2012,03,25,13,59,14.00
2012,03,25,14,00,14.00
2012,03,25,14,01,14.10
2012,03,25,14,02,14.10
2012,03,25,14,03,14.10
2012,03,25,14,04,14.10
2012,03,25,14,05,14.10
2012,03,25,14,06,14.10
2012,03,25,14,07,14.10
2012,03,25,14,08,14.10
2012,03,25,14,09,14.10
2012,03,25,14,10,14.20
2012,03,25,14,11,14.20
2012,03,25,14,12,14.20
2012,03,25,14,13,14.20
2012,03,25,14,14,14.10
2012,03,25,14,15,14.10
2012,03,25,14,16,14.10
2012,03,25,14,17,14.10
2012,03,25,14,18,14.00
2012,03,25,14,19,14.00
2012,03,25,14,20,14.10
2012,03,25,14,21,14.10
2012,03,25,14,22,14.10
2012,03,25,14,23,14.20
2012,03,25,14,24,14.20
2012,03,25,14,25,14.30
2012,03,25,14,26,14.40
2012,03,25,14,27,14.40
2012,03,25,14,28,14.50
2012,03,25,14,29,14.50
2012,03,25,14,30,14.50
2012,03,25,14,31,14.50
2012,03,25,14,32,14.50
2012,03,25,14,33,14.40
2012,03,25,14,34,14.50
2012,03,25,14,35,14.60
2012,03,25,14,36,14.60
2012,03,25,14,37,14.70
2012,03,25,14,38,14.80
2012,03,25,14,39,14.80
2012,03,25,14,40,14.90
2012,03,25,14,41,14.90
2012,03,25,14,42,14.90
2012,03,25,14,43,14.90
2012,03,25,14,44,14.90
2012,03,25,14,45,14.90
2012,03,25,14,46,14.90
2012,03,25,14,47,15.00
2012,03,25,14,48,15.00
2012,03,25,14,49,15.00
2012,03,25,14,50,15.00
2012,03,25,14,51,15.10
2012,03,25,14,52,15.30
2012,03,25,14,53,15.30
2012,03,25,14,54,15.30
2012,03,25,14,55,15.40
2012,03,25,14,56,15.30
2012,03,25,14,57,15.30
2012,03,25,14,58,15.30
2012,03,25,14,59,15.30
2012,03,25,15,00,15.30
2012,03,25,15,01,15.20
2012,03,25,15,02,15.20
2012,03,25,15,03,15.20
2012,03,25,15,04,15.20
2012,03,25,15,05,15.20
2012,03,25,15,06,15.20
2012,03,25,15,07,15.30
2012,03,25,15,08,15.30
2012,03,25,15,09,15.30
2012,03,25,15,10,15.40
2012,03,25,15,11,15.40
2012,03,25,15,12,15.50
2012,03,25,15,13,15.50
2012,03,25,15,14,15.40
2012,03,25,15,15,15.40
2012,03,25,15,16,15.40
2012,03,25,15,17,15.30
2012,03,25,15,18,15.30
2012,03,25,15,19,15.20
2012,03,25,15,20,15.20
2012,03,25,15,21,15.20
2012,03,25,15,22,15.20
2012,03,25,15,23,15.10
2012,03,25,15,24,15.10
2012,03,25,15,25,15.00
2012,03,25,15,26,15.00
2012,03,25,15,27,15.00
2012,03,25,15,28,15.00
2012,03,25,15,29,15.00
2012,03,25,15,30,15.00
2012,03,25,15,31,15.00
2012,03,25,15,32,15.00
2012,03,25,15,33,15.00
2012,03,25,15,34,15.00
2012,03,25,15,35,15.00
2012,03,25,15,36,15.00
2012,03,25,15,37,15.00
2012,03,25,15,38,15.00
2012,03,25,15,39,15.00
2012,03,25,15,40,15.00
2012,03,25,15,41,15.00
2012,03,25,15,42,15.00
2012,03,25,15,43,15.00
2012,03,25,15,44,15.00
2012,03,25,15,45,15.00
2012,03,25,15,46,15.00
2012,03,25,15,47,15.00
2012,03,25,15,48,15.00
2012,03,25,15,49,15.00
2012,03,25,15,50,15.00
2012,03,25,15,51,15.00
2012,03,25,15,52,15.00
2012,03,25,15,53,15.00
2012,03,25,15,54,15.00
2012,03,25,15,55,14.90
2012,03,25,15,56,14.80
2012,03,25,15,57,14.80
2012,03,25,15,58,14.70
2012,03,25,15,59,14.70
2012,03,25,16,00,14.70
2012,03,25,16,01,14.70
2012,03,25,16,02,14.80
2012,03,25,16,03,14.80
2012,03,25,16,04,14.80
2012,03,25,16,05,14.90
2012,03,25,16,06,14.90
2012,03,25,16,07,14.80
2012,03,25,16,08,14.80
2012,03,25,16,09,14.70
2012,03,25,16,10,14.70
2012,03,25,16,11,14.70
2012,03,25,16,12,14.70
2012,03,25,16,13,14.80
2012,03,25,16,14,14.80
2012,03,25,16,15,14.80
2012,03,25,16,16,14.80
2012,03,25,16,17,14.80
2012,03,25,16,18,14.80
2012,03,25,16,19,14.80
2012,03,25,16,20,14.80
2012,03,25,16,21,14.80
2012,03,25,16,22,14.90
2012,03,25,16,23,14.90
2012,03,25,16,24,15.00
2012,03,25,16,25,15.00
2012,03,25,16,26,15.00
2012,03,25,16,27,15.00
2012,03,25,16,28,15.00
2012,03,25,16,29,15.00
2012,03,25,16,30,15.00
2012,03,25,16,31,15.00
2012,03,25,16,32,15.10
2012,03,25,16,33,15.10
2012,03,25,16,34,15.20
2012,03,25,16,35,15.20
2012,03,25,16,36,15.20
2012,03,25,16,37,15.20
2012,03,25,16,38,15.20
2012,03,25,16,39,15.20
2012,03,25,16,40,15.20
2012,03,25,16,41,15.10
2012,03,25,16,42,15.10
2012,03,25,16,43,15.20
2012,03,25,16,44,15.20
2012,03,25,16,45,15.20
2012,03,25,16,46,15.30
2012,03,25,16,47,15.30
2012,03,25,16,48,15.40
2012,03,25,16,49,15.40
2012,03,25,16,50,15.40
2012,03,25,16,51,15.40
2012,03,25,16,52,15.40
2012,03,25,16,53,15.40
2012,03,25,16,54,15.40
2012,03,25,16,55,15.50
2012,03,25,16,56,15.50
2012,03,25,16,57,15.50
2012,03,25,16,58,15.40
2012,03,25,16,59,15.40
2012,03,25,17,00,15.40
2012,03,25,17,01,15.40
2012,03,25,17,02,15.30
2012,03,25,17,03,15.20
2012,03,25,17,04,15.20
2012,03,25,17,05,15.20
2012,03,25,17,06,15.30
2012,03,25,17,07,15.30
2012,03,25,17,08,15.30
2012,03,25,17,09,15.30
2012,03,25,17,10,15.30
2012,03,25,17,11,15.40
2012,03,25,17,12,15.40
2012,03,25,17,13,15.40
2012,03,25,17,14,15.40
2012,03,25,17,15,15.30
2012,03,25,17,16,15.30
2012,03,25,17,17,15.40
2012,03,25,17,18,15.30
2012,03,25,17,19,15.30
2012,03,25,17,20,15.30
2012,03,25,17,21,15.20
2012,03,25,17,22,15.20
2012,03,25,17,23,15.20
2012,03,25,17,24,15.20
2012,03,25,17,25,15.20
2012,03,25,17,26,15.20
2012,03,25,17,27,15.20
2012,03,25,17,28,15.20
2012,03,25,17,29,15.20
2012,03,25,17,30,15.20
2012,03,25,17,31,15.20
2012,03,25,17,32,15.20
2012,03,25,17,33,15.20
2012,03,25,17,34,15.20
2012,03,25,17,35,15.30
2012,03,25,17,36,15.30
2012,03,25,17,37,15.30
2012,03,25,17,38,15.30
2012,03,25,17,39,15.30
2012,03,25,17,40,15.30
2012,03,25,17,41,15.30
2012,03,25,17,42,15.30
2012,03,25,17,43,15.30
2012,03,25,17,44,15.30
2012,03,25,17,45,15.20
2012,03,25,17,46,15.20
2012,03,25,17,47,15.20
2012,03,25,17,48,15.30
2012,03,25,17,49,15.30